Погода Могилёв-Подольский

Погода Могилёв-Подольский : погода сейчас, прогноз погоды и архив. Всё, что Вы хотите узнать о погоде Могилёв-Подольский!

Хотите узнать прогноз погоды Могилёв-Подольский? Тогда Вам сюда: Погода Могилёв-Подольский

Поиск расширенной информации на нашем сайте:

Другие новости

Новости СМИ2

Главная страница сайта

Новости сайта

03.07.2017

Напоминаем, что на нашем специализированном сайте Метеоцентр.Азия вы можете получить высокодетализированные автоматические прогнозы погоды по пунктам России, СНГ и мира в авиационном формате (включающие направление и скорость ветра, видимость, явления погоды, количество и форму облачности, нижнюю и верхнюю границу облачности).


Погода Могилёв-Подольский - сегодня

Время (UTC), дата Ветер
(°,м/с) 
Видим.   Явления Облачность Т
(°С)
Тd
(°С)
f(%) Тe
(°С)
Pmin
(гПа)
dP
(гПа)
Po
(мм)
O2
(г/м3)
Тmin Tmax R s Состояние
почвы
18 19.08.17 140 (ЮВ) 10 км    4/0 средняя, верхняя 
[Ac trans|Ci fib]
+27.4 +11.5 37 +30  1016.5  -0.1  756  275    +35       
21 19.08.17 тихо ()   10 км    ясно 
+17.8 +13 73 +23  1017.3  0.5  756  283           
00 20.08.17 тихо ()   10 км    ясно 
+15.1 +12.5 84 +20  1017.7  0.3  756  286           
03 20.08.17 тихо ()   10 км    ясно 
+13 +10.9 87 +15  1017.8  756  289           
06 20.08.17 110 (В) 20000 м    3/0 средняя 
[Ac trans]
+17.8 +12 69 +23  1017.7  0.1  756  284  +12.7         
09 20.08.17 160 (Ю) 20000 м    ясно 
+31.6 +11.2 29 +34  1016.5  -0.8  756  271           
12 20.08.17 160 (Ю) 20000 м    8/5 600 м средняя, верхняя 
[Cu med, cong|Ac trans|Ci fib]
+34.1 +8.1 20 +34  1014.6  -1.8  754  269           
15 20.08.17 150 (ЮВ) 20000 м    6/4 600 м средняя, верхняя 
[Cu med, cong|Ac trans|Ci fib]
+32.2 +9.5 25 +33  1013.7  -1  754  270           
18 20.08.17 130 (ЮВ) 10 км    4/0 средняя 
[Ac trans]
+25 +14.4 52 +33  1013.9  754  275           
21 20.08.17 тихо ()   10 км    4/0 средняя 
[Ac trans]
+19.2 +13.8 71 +26  1014  754  281           
00 21.08.17 тихо ()   10 км    3/0 средняя 
[Ac trans]
+17.2 +12.3 73 +21  1013.8  -0.3  753  283           
03 21.08.17 310 (СЗ) 10 км    8/3 600 м средняя 
[Sc|Ac trans]
+18.6 +15.1 80 +29  1013.8  753  281        <0.5   
06 21.08.17 330 (СЗ) 20000 м    6/3 600 м средняя 
[Sc|Ac trans]
+20.2 +15.3 73 +29  1014.2  0.5  754  280  +17  +2.2       
09 21.08.17 340 (С) 20000 м    4/0 средняя 
[Ac trans]
+25 +15.4 55 +34  1013.6  -0.5  753  275           
12 21.08.17 310 (СЗ) 20000 м    8/3 600 м средняя 
[Cu med, cong|Ac trans]
+26.1 +14.4 48 +34  1012.9  -0.6  753  274           
15 21.08.17 340 (С) 20000 м    8/3 600 м средняя, верхняя 
[Cu med, cong|Ac trans|Ci fib]
+21.9 +12.8 56 +27  1013.2  0.1  753  278           
18 21.08.17 320 (СЗ) 10 км    9/5 600 м кучево-дожд., средняя 
[Cb calv|Ac trans]
+18 +12 68 +23  1014.2  0.9  754  283           
21 21.08.17 340 (С) 10 км    8/4 600 м кучево-дожд., средняя 
[Cb calv|Ac trans]
+16.2 +12 76 +21  1014.6  0.4  754  285           
00 22.08.17 340 (С) 10 км    10/4 600 м кучево-дожд., средняя 
[Cb calv|Ac und]
+16.2 +11.5 74 +20  1014.3  -0.3  754  285           
03 22.08.17 320 (СЗ) 10 км    10/8 750 м кучево-дожд., средняя 
[Cb calv|Ac und]
+15 +10.4 74 +18  1014.4  754  286        496  мокрый или
старый снег
10-40% 
06 22.08.17 340 (С) 20000 м    9/5 600 м кучево-дожд., средняя 
[Cb calv|Ac und]
+16.2 +14.1 87 +24  1014.5  0.2  754  284  +14.7         
09 22.08.17 340 (С) 20000 м    10/5 600 м кучево-дожд., средняя 
[Cb calv|Ac trans]
+18 +10.7 62 +21  1014.4  -0.1  754  283           
12 22.08.17 360 (С) 20000 м    8/5 600 м кучево-дожд., средняя 
[Cb calv|Ac trans]
+22.1 +8.5 42 +22  1013.1  -1.2  753  279           
15 22.08.17 360 (С) 20000 м    3/3 600 м 
[Sc]
+22.6 +7 37 +23  1011.9  -1.1  752  279           
18 22.08.17 320 (СЗ) 10 км    6/6 800 м кучево-дожд. 
[Cb calv]
+18.2 +10.2 60 +20  1012.4  0.3  752  282    +22.8       
Время (UTC), дата Ветер
(°,м/с) 
Видим.   Явления Облачность Т
(°С)
Тd
(°С)
f(%) Тe
(°С)
Pmin
(гПа)
dP
(гПа)
Po
(мм)
O2
(г/м3)
Тmin Tmax R s Состояние
почвы

Для получения пояснительной информации подведите курсор к названию столбца.

ПОГОДА Могилёв-Подольский - архив

Всё, что Вы хотите узнать о погоде Могилёв-Подольский - удобно и подробно!

Выберите нужную дату (начиная с 1 января 2015* года) и нажмите кнопку "Найти".
Будут отображены архивные сводки погоды по пункту Могилёв-Подольский, начиная с указанной даты.


Отображать данные в формате CSV (для использования в таблицах Excel)


Внимание! Наш архив погоды предназначен исключительно для личного некоммерческого использования в познавательных целях. Если Вам необходимы официальные справки о состоянии погоды (для производственных, юридических, коммерческих и т.п. целей), обращайтесь в органы Росгидромета.

*Примечание: данная дата относится к архиву по метеостанциям СССР (Россия, СНГ, Балтия).
Архив по метеостанциям Зарубежной Европы и Азии (кроме Китая) хранится 10 дней, по другим регионам земного шара (Китай, Африка, Америка, Австралия, Океания) - 1 день.

Могилёв-Подольский - район местоположения метеостанции


Название, широта, долгота, высота метеостанции:
Могилёв-Подольский 48.4°ш. 27.8°д. 78 м над ур. моря [Украина]

Дополнительная информация

В oтличие oт бoльшинства пoгoдных сайтoв мы публикуем пoдрoбную метеoинфoрмацию в детальнoм прoфессиoнальнoм фoрмате.

Характеристики температуры и влажнoсти вoздуха измеряются на высoте 2 м в тени вдали oт зданий и деревьев.
Скoрoсть ветра измеряется на высoте 10 м (на урoвне рoста челoвека скoрoсть ветра ниже в 1.5-2 раза). Если метеoстанция нахoдится в гoрoде или в лесу, тo скoрoсть ветра занижена на 2-4 м/с пo сравнению с oткрытым местoм. Скoрoсть ветра над акватoриями крупных рек и oзёр, а также на вершинах хoлмoв на 2-5 м/с выше, чем в oбычных услoвиях.
Атмoсфернoе давление в разных тoчках местнoсти мoжет значительнo oтличаться oт давления на метеoстанции, в зависимoсти oт услoвий рельефа (при пoдъёме на 10 м давление пoнижается примернo на 1 мм рт.ст.).